Location: *
(42.1160°S, 166.9240°W)
Time: 18:50:50
(UTC+00:00)

Daily predictions for brighter satellites

Satellite Brightness Start Highest point End
(mag) Time Altitude Azimuth Time Altitude Azimuth Time Altitude Azimuth
CENTAUR R/B 4.5 12:29:28 10° SSW 12:41:35 - ENE 12:32:23 21° S
ATLAS 2AS CENTAUR R/B 4.4 12:38:04 23° S 12:38:04 23° S 12:40:30 10° SSE
Cosmos 2360 Rocket 4.4 12:38:47 22° SSE 12:38:47 22° SSE 12:40:39 10° SSE
Cosmos 2333 Rocket 4.1 13:04:31 25° ESE 13:04:31 25° ESE 13:07:50 10° SE
SL-16 R/B 4.4 13:07:18 18° S 13:07:18 18° S 13:09:10 10° S
SL-16 R/B 4.4 13:04:11 10° SE 13:08:52 22° E 13:10:11 20° ENE
ADEOS II 3.8 13:17:57 30° SSE 13:17:57 30° SSE 13:20:57 10° S
Cosmos 2237 Rocket 3.5 13:36:10 35° E 13:36:10 35° E 13:40:59 10° SE
Cosmos 2219 Rocket 2.9 13:41:39 50° SE 13:41:39 50° SE 13:45:54 10° SSE
Okean O Rocket 3.5 13:45:41 29° SSE 13:45:41 29° SSE 13:48:26 10° S
Cosmos 1980 4.3 13:52:30 52° E 13:52:30 52° E 13:57:44 10° SSE
BREEZE-M DEB (TANK) 4.2 13:52:34 40° SSW 13:54:12 54° SE 14:09:21 10° ENE
COSMOS 2455 3.8 13:51:05 10° SSW 13:56:55 47° SE 14:02:42 10° NE
Lacrosse 5 4.0 13:54:37 15° SSW 13:57:23 23° SSE 14:01:27 10° ESE
PAYLOAD B 4.4 14:06:35 60° NE 14:07:28 71° ESE 14:13:03 10° S
Cosmos 2151 Rocket 4.5 14:11:22 48° SE 14:11:22 48° SE 14:14:52 10° SSE
Cosmos 1503 Rocket 4.1 14:10:06 10° SSW 14:15:23 73° ESE 14:16:23 57° NE
Timation 1 Rocket 4.2 14:09:39 10° SSW 14:20:21 17° NNE 14:21:41 10° NNE
Cosmos 1354 Rocket 4.1 14:11:15 10° SSW 14:16:35 74° ESE 14:18:03 48° NE
Cosmos 2360 Rocket 4.0 14:20:32 18° SW 14:20:32 18° SW 14:23:33 10° S
Cosmos 1655 Rocket 4.4 14:20:20 27° NNE 14:23:44 63° E 14:29:58 10° SSE
Cosmos 1092 Rocket 4.0 14:25:59 57° WSW 14:25:59 57° WSW 14:31:53 10° S
CENTAUR R/B 3.5 14:29:02 25° NNE 14:29:02 25° NNE 14:31:16 10° NNE
Cosmos 2278 Rocket 2.0 14:20:04 10° SSW 14:25:49 85° WNW 14:31:29 10° NNE
Cosmos 2026 Rocket 3.9 14:30:09 51° NNW 14:31:52 85° W 14:38:14 10° S
CZ-4B R/B 3.1 14:33:47 40° N 14:35:52 78° WNW 14:41:35 10° SSW
SL-08 R/B 4.2 14:34:55 10° S 14:38:22 36° SW 14:38:22 36° SW
COSMOS 2428 3.9 14:40:30 27° SW 14:40:30 27° SW 14:45:04 10° S
Meteor 1-11 Rocket 3.8 14:40:06 44° NNW 14:42:08 81° W 14:48:13 10° S
Cosmos 1553 Rocket 4.2 14:37:01 10° S 14:43:30 76° E 14:49:49 10° NNE
ASTEX 1 3.5 14:44:18 55° WSW 14:44:18 55° WSW 14:48:54 10° SSW
Cosmos 2333 Rocket 2.6 14:46:31 42° WSW 14:46:58 43° WSW 14:52:30 10° SSE
Okean-O 3.8 14:45:38 10° NE 14:49:53 44° ESE 14:54:10 10° S
Meteor 1-23 Rocket 4.3 14:46:43 10° S 14:52:30 78° E 14:58:08 10° NNE
Cosmos 1536 2.7 14:52:43 74° W 14:52:43 74° W 14:56:54 10° S
SL-16 R/B 2.6 14:46:43 10° S 14:52:56 62° WSW 14:55:17 38° NW
Cosmos 2297 3.9 14:48:49 10° SSW 14:54:32 72° ESE 15:00:11 10° NNE
ADEOS II 3.9 14:58:52 16° SW 14:58:52 16° SW 15:00:12 10° SW
IRS-1C Rocket 4.1 14:54:27 33° NNW 14:56:39 56° WNW 15:01:55 10° SSW
Cosmos 1992 Rocket 3.9 14:56:59 45° NW 14:58:32 70° WSW 15:03:48 10° SSE
Meteor 2-11 Rocket 4.5 14:55:19 10° SSW 15:01:22 56° W 15:07:20 10° NNW
S3M 3.9 14:57:52 10° S 15:04:05 83° W 15:10:16 10° N
Meteor 1-31 Rocket 2.7 15:06:41 48° NNW 15:07:31 62° W 15:11:23 10° SSW
SL-16 R/B 2.2 15:07:21 22° NNW 15:11:12 88° ENE 15:16:59 10° SSE
Meteor 1-5 Rocket 4.2 15:08:04 18° NNW 15:12:31 73° W 15:18:11 10° S
BREEZE-M DEB (TANK) 2.8 15:16:13 34° S 15:16:13 34° S 15:18:05 10° SE
MOZ.5/SAFIR/RUBIN 5/SL-8 4.0 15:13:34 10° S 15:18:11 52° WSW 15:20:28 28° NW
Cosmos 2237 Rocket 2.9 15:18:01 29° W 15:19:51 35° WSW 15:25:06 10° S
Okean O Rocket 3.5 15:23:07 15° SW 15:23:07 15° SW 15:24:16 10° SW
OAO 2 Rocket 4.4 15:20:56 24° NW 15:21:52 26° NNW 15:25:56 10° NE
Tiangong 2 2.5 15:23:25 26° N 15:23:25 26° N 15:25:42 10° NNE
USA 161 2.4 15:21:37 10° SE 15:23:16 27° E 15:23:31 26° ENE
Okean 1 Rocket 3.1 15:21:45 24° NNW 15:24:13 56° W 15:28:35 10° S
Cosmos 2219 Rocket 3.7 15:23:23 18° WSW 15:24:44 20° SW 15:28:53 10° S
USA 267 3.4 15:19:39 10° SE 15:26:18 78° NE 15:31:53 15° NW
Cosmos 883 Rocket 4.4 15:32:32 10° S 15:38:50 83° W 15:45:00 10° N
Meteor 2-4 Rocket 4.4 15:34:19 10° SSW 15:38:51 28° W 15:43:22 10° NW
SL-24 R/B - RUBIN 2 4.4 15:37:03 23° WNW 15:39:20 39° SW 15:43:59 10° SSE
Cosmos 1437 Rocket 3.2 15:35:45 10° N 15:39:52 70° E 15:44:03 10° SSE
Lacrosse 5 2.1 15:35:56 10° SW 15:41:06 77° SE 15:46:15 10° NE
Cosmos 968 Rocket 3.6 15:36:14 10° SSW 15:41:22 51° WNW 15:46:24 10° N
COSMOS 2455 3.5 15:37:26 10° SW 15:42:38 30° WNW 15:47:46 10° NNW
Cosmos 405 4.0 15:49:55 18° WNW 15:51:48 28° WSW 15:54:58 10° SSW
OE (NEXTSAT) 4.4 15:50:16 15° WSW 15:53:11 80° NNW 15:56:49 10° ENE
Cosmos 1515 4.2 15:50:01 10° SSW 15:53:37 37° W 15:57:10 10° NNW
Cosmos 1500 3.4 15:49:56 10° NNW 15:53:42 49° W 15:57:34 10° S
IDEFIX/ARIANE 42P 2.6 15:48:48 10° NNE 15:54:04 88° W 15:59:24 10° SSW
Cosmos 1943 Rocket 4.4 15:51:05 10° S 15:55:50 27° SE 16:00:30 10° ENE
Cosmos 2266 Rocket 4.2 15:52:49 10° NNW 15:58:56 52° WSW 16:05:02 10° S
Cosmos 1544 Rocket 3.7 15:55:31 10° N 15:59:58 86° ENE 16:04:33 10° S
USA 234 4.0 15:54:39 10° ENE 16:01:00 53° SSE 16:07:22 10° SW
Cosmos 1238 Rocket 4.1 15:58:19 10° S 16:04:14 88° ESE 16:10:52 10° N
Okean 2 4.3 16:01:30 10° SSW 16:05:05 28° W 16:08:38 10° NNW
Haruka 4.3 16:02:16 11° WNW 16:06:13 21° NNW 16:08:55 10° NE
Cosmos 1892 Rocket 3.6 16:02:32 10° SSW 16:07:04 63° W 16:11:30 10° N
Cosmos 1455 Rocket 3.1 16:03:04 10° N 16:07:29 88° WSW 16:12:00 10° S
Cosmos 1025 Rocket 4.0 16:04:25 10° SSW 16:08:00 25° W 16:11:32 10° NW
Cosmos 2278 Rocket 3.9 16:07:26 10° W 16:08:56 11° W 16:10:27 10° WNW
Okean 1-7 Rocket 4.5 16:06:24 10° SSW 16:10:13 28° W 16:14:01 10° NNW
ERS-2 3.5 16:09:36 10° NE 16:13:11 45° ESE 16:16:48 10° S
Meteor 1-12 Rocket 4.3 16:10:28 10° NNW 16:16:20 69° W 16:22:11 10° S
Cosmos 972 Rocket 4.4 16:18:13 10° NW 16:23:16 43° WSW 16:28:03 10° S
Cosmos 1066 Rocket 4.4 16:21:35 10° SSW 16:26:46 45° W 16:31:51 10° NNW
